カタログに戻る

DELTA 1 R/B

CEP 1

運用中SSO
NORAD 4794·ROCKET BODY·🇺🇸 United States

打ち上げ Dec 11, 1970 から Vandenberg Space Force Base

Loading…

次のパス

TLE

Source: Space-Track
1 04794U 70106B   26230.24766747 -.00000037  00000-0  31477-4 0  9991
2 04794 101.3037 235.4407 0036316 225.1136 146.0539 12.53275488939199

AllMySatでDELTA 1 R/Bをリアルタイム追跡

Download on the App Store